Location: S�deilles
(46.7500°N, 6.9329°E)
Time: 17:32:37
(UTC+00:00)

USA 305 - Pass Details

Date: 08 March 2021
Orbit: 567 x 574 km, 54.0° (Epoch: 22 April)

Event Time Altitude Azimuth Distance (km) Brightness Sun altitude
Rises 19:52:20 0° 301° (WNW) 2,781 7.7 -25.1°
Reaches altitude 10° 19:54:36 10° 300° (WNW) 1,879 6.6 -25.4°
Enters shadow 19:58:08 59° 286° (WNW) 661 3.4 -26.0°
